Location: Ferchesar
(52.6477°N, 12.4298°E)
Time: 09:57:40
(UTC+01:00)

S-56A Canister/Altair - Pass Details

Date: 15 December 2021
Orbit: 633 x 2499 km, 38.9° (Epoch: 19 January)

Event Time Altitude Azimuth Distance (km) Brightness Sun altitude
Rises 23:43:52 0° 263° (W) 5,841 12.0 -60.4°
Enters shadow 23:45:15 - 261° (W) 5,466 11.9 -60.4°
Reaches altitude 10° 23:48:26 10° 255° (WSW) 4,602 - -60.5°
Maximum altitude 23:58:45 34° 198° (SSW) 2,473 - -60.6°
Drops below altitude 10° 00:06:10 10° 137° (SE) 3,276 - -60.7°
Sets 00:08:51 0° 128° (SE) 4,004 - -60.7°
